Home   Weather   Sherbrooke   Past weeks

Flag for Canada Past Weather in Sherbrooke, Quebec, Canada — Yesterday and Last 2 Weeks

39 °F


Feels Like: 31 °F
Forecast: 31 / 38 °F
Wind: 14 mph from West

Location: Sherbrooke

Current Time: Oct 24, 2016 at 1:22:04 AM

Latest Report: Oct 24, 2016 at 1:00 AM

Visibility: 9 mi

Pressure: 29.64 "Hg

Humidity: 81%

Dew Point: 34 °F

Location of SherbrookeLocation

Past Weather in Sherbrooke — Graph


Sherbrooke Temperature Yesterday

Maximum temperature yesterday: 43 °F (at 6:00 PM)
Minimum temperature yesterday: 32 °F (at 1:00 AM)
Average temperature yesterday: 37 °F

High & Low Weather Summary for the Past Weeks

High72 °F (Oct 18, 4:00 PM)100% (Oct 9, 2:04 AM)30.49 "Hg (Oct 9, 2:04 AM)
Low27 °F (Oct 15, 1:00 AM)23% (Oct 12, 4:00 PM)29.16 "Hg (Oct 22, 9:00 PM)
Average47 °F84%29.98 "Hg
* Reported Oct 9 12:00 AM — Oct 24 12:00 AM, Sherbrooke, Weather by CustomWeather, © 2016

Note: Actual official high and low records may vary slightly from our data, if they occured in-between our weather recording intervals... More about our weather records


Sherbrooke Weather History for the Previous 24 Hours

Scroll right to see more
Time TempWeatherWind HumidityBarometerVisibility
12:00 AM
Mon, Oct 24
41 °FClear.16 mph70%29.65 "Hg9 mi
11:00 PM
Sun, Oct 23
41 °FOvercast.24 mph76%29.63 "Hg9 mi
10:00 PM43 °FOvercast.16 mph61%29.62 "Hg9 mi
9:00 PM43 °FOvercast.20 mph57%29.60 "Hg9 mi
8:00 PM43 °FOvercast.17 mph57%29.59 "Hg9 mi
7:00 PM43 °FOvercast.14 mph66%29.59 "Hg9 mi
6:00 PM43 °FMostly cloudy.15 mph71%29.56 "Hg9 mi
5:00 PM39 °FMostly cloudy.15 mph87%29.53 "Hg9 mi
4:00 PM39 °FOvercast.10 mph87%29.52 "Hg9 mi
3:00 PM37 °FLight rain. Overcast.16 mph93%29.50 "Hg9 mi
2:00 PM37 °FLight rain. Overcast.24 mph93%29.48 "Hg9 mi
1:00 PM36 °FLight rain. Overcast.24 mph93%29.45 "Hg9 mi
12:00 PM36 °FLight rain. Overcast.23 mph93%29.44 "Hg9 mi
11:00 AM36 °FLight rain. Overcast.22 mph93%29.41 "Hg9 mi
10:00 AM36 °FLight rain. Mostly cloudy.18 mph93%29.39 "Hg9 mi
9:00 AM36 °FLight rain. Overcast.20 mph93%29.37 "Hg9 mi
8:00 AM34 °FLight rain. Overcast.18 mph100%29.34 "Hg8 mi
7:00 AM34 °FLight snow. Low clouds.16 mph100%29.32 "Hg3 mi
6:00 AM34 °FLight snow. Low clouds.16 mph93%29.30 "Hg2 mi
5:49 AM34 °FLight snow. Low clouds.18 mph93%29.29 "Hg2 mi
5:00 AM34 °FLight snow. Low clouds.18 mph93%29.27 "Hg2 mi
4:00 AM34 °FLight snow. Low clouds.13 mph100%29.26 "Hg1 mi
3:00 AM32 °FLight snow. Low clouds.13 mph100%29.24 "Hg1 mi
2:00 AM32 °FLight snow. Low clouds.12 mph100%29.23 "Hg1 mi
1:00 AM32 °FLight snow. Low clouds.9 mph100%29.23 "Hg1 mi
Weather by CustomWeather, © 2016

See weather overviewHow to use our weather pages